Regional Weather Roundup
Issued by NWS Nashville, TN

Home | Current Version | Previous Version | Text Only | Print | Product List | Glossary On
Versions: 1 2 3 4 5 6 7 8 9 10 11 12 13 14 15 16 17 18 19 20 21 22 23 24 25 26 27 28 29 30 31 32 33 34 35 36 37 38 39 40 41 42 43 44 45 46 47 48 49 50
000
ASUS44 KOHX 231800
RWROHX
MIDDLE TENNESSEE HOURLY WEATHER ROUNDUP
NATIONAL WEATHER SERVICE NASHVILLE TN
100 PM CDT SAT AUG 23 2014

NOTE: "FAIR" INDICATES FEW OR NO CLOUDS BELOW 12,000 FEET WITH
NO SIGNIFICANT WEATHER AND/OR OBSTRUCTIONS TO VISIBILITY.

* THESE REPORTS ARE NOT UNDER NWS QUALITY CONTROL AND MAY NOT
  REPORT WEATHER SUCH AS PRECIPITATION AND FOG.


TNZ005>011-023>034-057-059-062>066-078-080-231900
...NORTHERN MIDDLE TENNESSEE...

CITY           SKY/WX    TMP DP  RH WIND       PRES   REMARKS
CLARKSVILLE    PTSUNNY   91  78  65 VRB3      29.98F HX 106
CROSSVILLE     MOSUNNY   83  71  67 N8        30.08F
NASHVILLE      LGT RAIN  89  73  59 W5        30.01F HX  97
SPARTA         MOSUNNY   91  75  59 VRB5      30.03F HX 102
$$
TNZ056-058-060-061-075>077-079-093>097-231900
...SOUTHERN MIDDLE TENNESSEE...

CITY           SKY/WX    TMP DP  RH WIND       PRES   REMARKS
COLUMBIA       MOSUNNY   91  77  62 VRB3      30.01F HX 105
FAYETTEVILLE   MOSUNNY   88  72  58 N6        30.03F HX  94
MCMINNVILLE    MOSUNNY   88  75  66 VRB6      30.04F HX  97
SHELBYVILLE    MOSUNNY   91  77  62 W9        30.03F HX 105
TULLAHOMA      MOSUNNY   88  72  58 NW6       30.05F HX  94
WINCHESTER     MOSUNNY   88  72  58 NW6       30.03F HX  94
$$


...KEY TO REMARKS...
VSB - VISIBILITY IN MILES
WCI - WIND CHILL INDEX
HX  - HEAT INDEX



USA.gov is the U.S. government's official web portal to all federal, state and local government web resources and services.